Location: Crescent
(42.8242°N, 73.7329°W)
Time: 00:12:51
(UTC+00:00)

Transit 4A - Pass Details

Date: 24 February 2026
Orbit: 864 x 977 km, 66.8° (Epoch: 10 March)

Event Time Altitude Azimuth Distance (km) Brightness Sun altitude
Rises 06:24:27 0° 186° (S) 3,441 - -52.7°
Reaches altitude 10° 06:27:01 10° 179° (S) 2,517 - -52.4°
Maximum altitude 06:32:24 41° 111° (ESE) 1,275 - -51.9°
Drops below altitude 10° 06:37:57 10° 44° (NE) 2,594 - -51.3°
Exits shadow 06:38:35 - 42° (NE) 2,817 10.9 -51.2°
Sets 06:40:38 0° 37° (NE) 3,558 11.6 -51.0°
